Terminal Aerodrome Forecast
Issued by NWS State College, PA

Home | Current Version | Previous Version | Text Only | Print | Product List | Glossary On
Versions: 1 2 3 4 5 6 7 8 9 10 11 12 13 14 15 16 17 18 19 20 21 22 23 24 25 26 27 28 29 30 31 32 33 34 35 36 37 38 39 40 41 42 43 44 45 46 47 48 49 50
000
FTUS41 KCTP 181610 AAA
TAFMDT
TAF AMD
KMDT 181610Z 1816/1912 13009KT P6SM FEW011 BKN060 OVC070
     FM181700 14006KT 2SM -SN OVC015
     FM182200 16010G20KT 3SM -SNPL BR OVC007
     FM190000 17011KT 3SM BR OVC007=

USA.gov is the U.S. government's official web portal to all federal, state and local government web resources and services.